When you browse on this site, cookies collect data to enhance your experience and personalize the content and advertising you see.
Visit our Privacy Policy to learn more. By continuing to use the site, you agree to this use of cookies and data.
  • In Hungary
  • List of Countries
  • For 7 days
  • Water Temperature
  • Weather Map
  • News
  • Weather Widgets
  • user-avatar
    Login

    Hourly Weather Veinte de Noviembre

    Today, 13 November, Wednesday

    Time Temperature Precipitation Wind Pressure Humidity
    00:00 +23°C° 0.1 mm 2 mps 727 mmHg 75%
    01:00 +23°C° 0 mm 2 mps 727 mmHg 73%
    02:00 +23°C° 0 mm 2 mps 727 mmHg 71%
    03:00 +23°C° 0 mm 2 mps 727 mmHg 69%
    04:00 +23°C° 0 mm 2 mps 727 mmHg 69%
    05:00 +23°C° 0 mm 2 mps 727 mmHg 68%
    06:00 +23°C° 0 mm 2 mps 727 mmHg 68%
    07:00 +25°C° 0 mm 1 mps 728 mmHg 65%
    08:00 +27°C° 0 mm 1 mps 728 mmHg 62%
    09:00 +29°C° 0 mm 1 mps 729 mmHg 60%
    10:00 +29°C° 0 mm 1 mps 728 mmHg 60%
    11:00 +30°C° 0 mm 1 mps 728 mmHg 59%
    12:00 +31°C° 0 mm 2 mps 728 mmHg 59%
    13:00 +30°C° 0.2 mm 2 mps 727 mmHg 64%
    14:00 +30°C° 0.2 mm 2 mps 726 mmHg 68%
    15:00 +29°C° 0.2 mm 2 mps 726 mmHg 73%
    16:00 +28°C° 0.5 mm 1 mps 726 mmHg 79%
    17:00 +27°C° 0.5 mm 1 mps 726 mmHg 84%
    18:00 +23°C° 0.5 mm 0 mps 726 mmHg 90%
    19:00 +25°C° 0.1 mm 1 mps 727 mmHg 90%
    20:00 +25°C° 0.1 mm 1 mps 727 mmHg 90%
    21:00 +24°C° 0.1 mm 1 mps 728 mmHg 89%
    22:00 +24°C° 0.1 mm 1 mps 728 mmHg 89%
    23:00 +24°C° 0.1 mm 1 mps 728 mmHg 89%

    Tomorrow, 14 November, Thursday

    Time Temperature Precipitation Wind Pressure Humidity
    00:00 +24°C° 0.1 mm 1 mps 728 mmHg 89%
    01:00 +23°C° 0.3 mm 1 mps 728 mmHg 88%
    02:00 +23°C° 0.3 mm 1 mps 727 mmHg 88%
    03:00 +23°C° 0.3 mm 1 mps 727 mmHg 88%
    04:00 +23°C° 0 mm 1 mps 727 mmHg 86%
    05:00 +23°C° 0 mm 1 mps 727 mmHg 85%
    06:00 +23°C° 0 mm 1 mps 727 mmHg 84%
    07:00 +25°C° 0 mm 1 mps 728 mmHg 79%
    08:00 +27°C° 0 mm 1 mps 728 mmHg 74%
    09:00 +29°C° 0 mm 1 mps 729 mmHg 69%
    10:00 +29°C° 0.2 mm 1 mps 728 mmHg 70%
    11:00 +30°C° 0.2 mm 1 mps 728 mmHg 71%
    12:00 +30°C° 0.2 mm 2 mps 728 mmHg 72%
    13:00 +30°C° 0.6 mm 2 mps 727 mmHg 74%
    14:00 +29°C° 0.6 mm 2 mps 727 mmHg 77%
    15:00 +29°C° 0.6 mm 2 mps 726 mmHg 80%
    16:00 +28°C° 0.5 mm 1 mps 726 mmHg 83%
    17:00 +27°C° 0.5 mm 1 mps 727 mmHg 87%
    18:00 +26°C° 0.5 mm 1 mps 727 mmHg 91%
    19:00 +25°C° 0.8 mm 1 mps 728 mmHg 91%
    20:00 +25°C° 0.8 mm 1 mps 728 mmHg 91%
    21:00 +24°C° 0.8 mm 1 mps 729 mmHg 91%
    22:00 +24°C° 0.7 mm 1 mps 729 mmHg 90%
    23:00 +24°C° 0.7 mm 1 mps 729 mmHg 90%

    Day after tomorrow, 15 November, Friday

    Time Temperature Precipitation Wind Pressure Humidity
    00:00 +24°C° 0.7 mm 2 mps 728 mmHg 89%
    01:00 +23°C° 0.5 mm 2 mps 728 mmHg 88%
    02:00 +23°C° 0.5 mm 1 mps 728 mmHg 86%
    03:00 +23°C° 0.5 mm 1 mps 727 mmHg 85%
    04:00 +23°C° 0 mm 2 mps 728 mmHg 81%
    05:00 +23°C° 0 mm 2 mps 728 mmHg 79%
    06:00 +23°C° 0 mm 2 mps 728 mmHg 77%
    07:00 +25°C° 0 mm 1 mps 729 mmHg 73%
    08:00 +27°C° 0 mm 1 mps 729 mmHg 70%
    09:00 +28°C° 0 mm 1 mps 729 mmHg 67%
    10:00 +29°C° 0 mm 1 mps 729 mmHg 65%
    11:00 +30°C° 0 mm 1 mps 728 mmHg 64%
    12:00 +31°C° 0 mm 2 mps 728 mmHg 63%
    13:00 +30°C° 0.5 mm 2 mps 727 mmHg 68%
    14:00 +30°C° 0.5 mm 2 mps 727 mmHg 74%
    15:00 +29°C° 0.5 mm 2 mps 726 mmHg 79%
    16:00 +28°C° 1.1 mm 1 mps 726 mmHg 82%
    17:00 +27°C° 1.1 mm 1 mps 727 mmHg 86%
    18:00 +25°C° 1.1 mm 1 mps 727 mmHg 90%
    19:00 +25°C° 0.8 mm 1 mps 727 mmHg 90%
    20:00 +25°C° 0.8 mm 1 mps 728 mmHg 89%
    21:00 +24°C° 0.8 mm 2 mps 728 mmHg 89%
    22:00 +24°C° 0.6 mm 2 mps 728 mmHg 88%
    23:00 +24°C° 0.6 mm 2 mps 728 mmHg 87%

    16 November, Saturday

    Time Temperature Precipitation Wind Pressure Humidity
    00:00 +24°C° 0.6 mm 2 mps 728 mmHg 87%
    01:00 +24°C° 0.1 mm 2 mps 727 mmHg 85%
    02:00 +24°C° 0.1 mm 2 mps 727 mmHg 83%
    03:00 +24°C° 0.1 mm 2 mps 727 mmHg 82%
    04:00 +24°C° 0 mm 2 mps 727 mmHg 81%
    05:00 +23°C° 0 mm 2 mps 727 mmHg 80%
    06:00 +23°C° 0 mm 2 mps 727 mmHg 79%
    07:00 +25°C° 0 mm 1 mps 728 mmHg 75%
    08:00 +27°C° 0 mm 1 mps 728 mmHg 70%
    09:00 +28°C° 0 mm 1 mps 728 mmHg 66%
    10:00 +29°C° 0 mm 1 mps 728 mmHg 64%
    11:00 +30°C° 0 mm 1 mps 727 mmHg 62%
    12:00 +31°C° 0 mm 2 mps 727 mmHg 60%
    13:00 +30°C° 0.2 mm 2 mps 726 mmHg 65%
    14:00 +30°C° 0.2 mm 2 mps 726 mmHg 70%
    15:00 +29°C° 0.2 mm 2 mps 725 mmHg 75%
    16:00 +28°C° 0.5 mm 1 mps 725 mmHg 79%
    17:00 +27°C° 0.5 mm 1 mps 726 mmHg 84%
    18:00 +23°C° 0.5 mm 0 mps 726 mmHg 89%
    19:00 +25°C° 0.1 mm 1 mps 726 mmHg 88%
    20:00 +24°C° 0.1 mm 1 mps 727 mmHg 87%
    21:00 +24°C° 0.1 mm 2 mps 727 mmHg 87%
    22:00 +24°C° 0.1 mm 2 mps 727 mmHg 86%
    23:00 +24°C° 0.1 mm 2 mps 727 mmHg 84%

    17 November, Sunday

    Time Temperature Precipitation Wind Pressure Humidity
    00:00 +24°C° 0.1 mm 2 mps 727 mmHg 83%
    01:00 +24°C° 0.1 mm 2 mps 726 mmHg 82%
    02:00 +23°C° 0.1 mm 2 mps 726 mmHg 81%
    03:00 +23°C° 0.1 mm 1 mps 725 mmHg 80%
    04:00 +23°C° 0 mm 1 mps 726 mmHg 79%
    05:00 +23°C° 0 mm 1 mps 726 mmHg 78%
    06:00 +23°C° 0 mm 1 mps 726 mmHg 78%
    07:00 +25°C° 0 mm 1 mps 726 mmHg 74%
    08:00 +27°C° 0 mm 1 mps 727 mmHg 70%
    09:00 +29°C° 0 mm 1 mps 727 mmHg 66%
    10:00 +29°C° 0 mm 1 mps 727 mmHg 66%
    11:00 +30°C° 0 mm 2 mps 726 mmHg 65%
    12:00 +31°C° 0 mm 2 mps 726 mmHg 65%
    13:00 +30°C° 0.4 mm 2 mps 725 mmHg 70%
    14:00 +29°C° 0.4 mm 2 mps 725 mmHg 75%
    15:00 +29°C° 0.4 mm 2 mps 724 mmHg 80%
    16:00 +27°C° 0.3 mm 1 mps 724 mmHg 84%
    17:00 +26°C° 0.3 mm 1 mps 725 mmHg 87%
    18:00 +23°C° 0.3 mm 0 mps 725 mmHg 91%
    19:00 +23°C° 0 mm 0 mps 726 mmHg 91%
    20:00 +25°C° 0 mm 1 mps 726 mmHg 91%
    21:00 +24°C° 0 mm 1 mps 726 mmHg 91%
    22:00 +24°C° 0.1 mm 1 mps 726 mmHg 90%
    23:00 +23°C° 0.1 mm 2 mps 726 mmHg 89%

    18 November, Monday

    Time Temperature Precipitation Wind Pressure Humidity
    00:00 +23°C° 0.1 mm 2 mps 726 mmHg 87%
    01:00 +23°C° 0 mm 2 mps 726 mmHg 85%
    02:00 +23°C° 0 mm 2 mps 725 mmHg 82%
    03:00 +21°C° 0 mm 2 mps 725 mmHg 80%
    04:00 +21°C° 0 mm 2 mps 725 mmHg 78%
    05:00 +23°C° 0 mm 2 mps 725 mmHg 76%
    06:00 +23°C° 0 mm 2 mps 726 mmHg 74%
    07:00 +24°C° 0 mm 1 mps 726 mmHg 72%
    08:00 +26°C° 0 mm 1 mps 726 mmHg 70%
    09:00 +28°C° 0 mm 1 mps 727 mmHg 68%
    10:00 +29°C° 0 mm 1 mps 726 mmHg 68%
    11:00 +30°C° 0 mm 1 mps 726 mmHg 67%
    12:00 +30°C° 0 mm 2 mps 726 mmHg 66%
    13:00 +30°C° 0.5 mm 2 mps 725 mmHg 71%
    14:00 +29°C° 0.5 mm 1 mps 724 mmHg 77%
    15:00 +28°C° 0.5 mm 1 mps 724 mmHg 82%
    16:00 +27°C° 1 mm 1 mps 724 mmHg 85%
    17:00 +26°C° 1 mm 1 mps 725 mmHg 88%
    18:00 +23°C° 1 mm 0 mps 725 mmHg 91%
    19:00 +25°C° 1.3 mm 1 mps 726 mmHg 91%
    20:00 +24°C° 1.3 mm 1 mps 726 mmHg 92%
    21:00 +24°C° 1.3 mm 1 mps 727 mmHg 92%
    22:00 +23°C° 0.4 mm 1 mps 727 mmHg 90%
    23:00 +23°C° 0.4 mm 1 mps 727 mmHg 89%
    Show more